Regional Weather Roundup
Issued by NWS

Home | Current Version | Previous Version | Text Only | Print | Product List | Glossary On
Versions: 1 2 3 4 5 6 7 8 9 10 11 12 13 14 15 16 17 18 19 20 21 22 23 24 25 26 27
000
ASUS45 KTFX 231210
RWRMT
MONTANA REGIONAL WEATHER ROUNDUP
NATIONAL WEATHER SERVICE GREAT FALLS MT
600 AM MDT TUE MAY 23 2017

NOTE: "FAIR" INDICATES FEW OR NO CLOUDS BELOW 12000 FEET WITH NO
SIGNIFICANT WEATHER AND/OR OBSTRUCTIONS TO VISIBILITY.

MTZ001>007-043-231300-
WEST OF THE DIVIDE

CITY           SKY/WX    TMP DP  RH WIND       PRES   REMARKS
KALISPELL      CLEAR     44  42  93 CALM      30.11F
MISSOULA       CLEAR     43  39  86 N3        30.18S
BUTTE          CLEAR     36  32  85 CALM      30.26F
MULLAN PASS    CLEAR     55  34  45 S5        30.21F
ANACONDA         N/A     45  34  65 S7        30.23S
DEER LODGE       N/A     37  36  93 CALM      30.24F
EUREKA           N/A     45  39  81 CALM      30.10S
HAMILTON         N/A     48  39  71 CALM      30.18S
LIBBY            N/A     43  41  93 CALM      30.09F
RONAN            N/A     44  40  86 CALM      30.14F
$$

MTZ008-052>055-231300-
SOUTHWEST MONTANA

CITY           SKY/WX    TMP DP  RH WIND       PRES   REMARKS
BOZEMAN        CLEAR     39  35  86 SE5       30.23S
DILLON         CLEAR     40  34  79 S5        30.25S
W YELLOWSTONE  CLOUDY    27  27 100 CALM      30.33R
ENNIS          CLEAR     37  34  87 CALM      30.30F
THREE FORKS      N/A     38  37  96 CALM      30.19S
$$

MTZ009-010-012-014-046-048-049-054-231300-
EAST SLOPES AND CENTRAL MONTANA

CITY           SKY/WX    TMP DP  RH WIND       PRES   REMARKS
CUT BANK       CLEAR     42  32  67 SW3       30.10F
GREAT FALLS    CLEAR     46  37  71 CALM      30.13F
HELENA         CLEAR     47  40  76 CALM      30.19S
CHOTEAU          N/A     48  41  76 SW7       30.14S
$$

MTZ011-013-016-021-045-047-050-051-231300-
NORTH CENTRAL MONTANA

CITY           SKY/WX    TMP DP  RH WIND       PRES   REMARKS
HAVRE          PTCLDY    42  33  70 E5        30.13F
LEWISTOWN      CLEAR     37  32  82 SE8       30.18F WCI  31
N BAR RANCH      N/A     37  30  75 NW5       30.23F
CHINOOK          N/A     45  34  65 E5        30.15S
FORT BENTON      N/A     43  37  81 CALM      30.14F
$$

MTZ017>020-022>027-061-062-231300-
NORTHEAST MONTANA

CITY           SKY/WX    TMP DP  RH WIND       PRES   REMARKS
GLASGOW        CLEAR     39  31  72 N5        30.17S
JORDAN           N/A     32  29  88 CALM      30.19R
SIDNEY         CLEAR     38  33  82 CALM      30.18R
WOLF POINT     CLEAR     38  33  82 SW3       30.18R
MALTA          CLEAR     36  34  93 W5        30.17S
PLENTYWOOD       N/A     43  34  70 CALM      30.17R
POPLAR           N/A     37  30  75 N3        30.18S
$$

MTZ028>42-056>058-231300-
SOUTHCENTRAL AND SOUTHEAST MONTANA

CITY           SKY/WX    TMP DP  RH WIND       PRES   REMARKS
BAKER          CLEAR     37  35  92 CALM      30.17S
BILLINGS       PTCLDY    43  38  82 SW9       30.19F
LIVINGSTON     CLEAR     36  33  89 NW9       30.21F WCI  29
MILES CITY     CLEAR     38  32  79 W9        30.18S WCI  31
BIG TIMBER     CLEAR     37  36  93 W3        30.24S
FORSYTH          N/A     45  39  81 CALM      30.19S
LAUREL           N/A     38  29  70 SW3       30.17F
ROUNDUP          N/A     38  31  76 SW6       30.10S
$$

REGIONAL REPORTS...DAKOTAS

CITY           SKY/WX    TMP DP  RH WIND       PRES   REMARKS
WILLISTON      CLEAR     37  33  85 CALM      30.17S
MINOT          PTCLDY    44  37  76 NW8       30.14R
DICKINSON      PTCLDY    37  33  85 W7        30.13R WCI  32
BEACH            N/A     34  34 100 CALM      30.20R
TIOGA            N/A     37  37 100 W5        30.18R
WATFORD CITY     N/A     36  32  87 CALM      30.16S
BISMARCK       CLOUDY    53  37  54 N14G24    30.07R
GRAND FORKS    CLOUDY    50  45  83 N17G25    29.97R
FARGO          CLOUDY    48  46  93 N18       29.91R
BUFFALO SD       N/A     38  34  85 W5        30.09R
RAPID CITY     CLOUDY    48  39  71 N14       30.14R
$$

REGIONAL REPORTS...WYOMING/IDAHO/WASHINGTON

CITY           SKY/WX    TMP DP  RH WIND       PRES   REMARKS
GILLETTE       CLEAR     39  37  92 W9        30.20R
SHERIDAN       CLEAR     38  34  85 CALM      30.21S
BUFFALO WY     CLEAR     40  31  70 W7        30.23S
CODY           CLEAR     43  32  65 SW6       30.24F
YELLOWSTONE LA   N/A     26  25  96 CALM      30.37R
IDAHO FALLS    CLEAR     41  37  86 N6        30.24F
SALMON         CLOUDY    43  37  81 SE3       30.22S
BOISE          CLEAR     59  40  49 SE13      30.11R
SPOKANE        PTCLDY    57  46  66 S8        30.06S
$$

REGIONAL REPORTS...ALBERTA

CITY           SKY/WX    TMP DP  RH WIND       PRES   REMARKS
EDMONTON       CLEAR     59  43  55 SW8       29.87F
CALGARY        MOCLDY    57  37  47 CALM      30.00F
LETHBRIDGE     MOCLDY    52  32  46 SW5       30.02S
MEDICINE HAT   CLEAR     57  36  44 S10       30.04F
WATERTON GATE    N/A     57  36  44 S16G22      N/A
CARDSTON         N/A     52  37  58 SW12        N/A
MILK RIVER       N/A     46  34  61 S8          N/A
$$

REGIONAL REPORTS...SASKATCHEWAN

CITY           SKY/WX    TMP DP  RH WIND       PRES   REMARKS
SWIFT CURRENT  PTCLDY    48  32  53 SW12      30.12F
REGINA         PTCLDY    41  30  65 SE8       30.15S
SASKATOON      PTCLDY    45  36  70 S6        30.10F
CYPRESS HILLS    N/A     45  28  53 S8          N/A
VAL MARIE        N/A     32  27  80 NE2         N/A
ROCKGLEN         N/A     45  34  65 W5          N/A
ASSINIBOIA       N/A     57  41  54 S10         N/A
$$




USA.gov is the U.S. government's official web portal to all federal, state and local government web resources and services.